Regional Weather Roundup
Issued by NWS

Home | Current Version | Previous Version | Graphics & Text | Print | Product List | Glossary On
Versions: 1 2 3 4 5 6 7 8 9 10 11 12 13 14 15 16 17 18 19 20 21 22 23 24 25 26 27 28 29 30 31 32 33 34 35 36 37 38 39 40 41 42 43 44 45 46 47 48 49 50
000
ASUS43 KOAX 251610
RWRNE

WEATHER ROUNDUP FOR NEBRASKA
NATIONAL WEATHER SERVICE OMAHA NE
1100 AM CDT TUE JUL 25 2017

NOTES: SATELLITE DATA IS BEING USED TO AUGMENT CLOUD COVER ABOVE
       12000 FEET.
       "FAIR" INDICATES FEW OR NO CLOUDS BELOW 12,000 FEET WITH NO
       SIGNIFICANT WEATHER AND/OR OBSTRUCTIONS TO VISIBILITY.


NEZ001>004-019>022-054>056-251700-
NEBRASKA PANHANDLE

CITY           SKY/WX    TMP DP  RH WIND       PRES   REMARKS
SCOTTSBLUFF    PTSUNNY   85  54  34 VRB3      29.98S
ALLIANCE       MOSUNNY   87  60  40 S9        29.98R
CHADRON        CLOUDY    85  53  33 VRB3      29.95R
GORDON         FAIR      82  65  57 W6        29.96S
KIMBALL        SUNNY     85  56  36 NW9       30.06S
SIDNEY         SUNNY     85  61  44 S9        30.02F
$$

NEZ057>060-069>072-079>082-251700-
SOUTHWEST NEBRASKA

CITY           SKY/WX    TMP DP  RH WIND       PRES   REMARKS
NORTH PLATTE   CLOUDY    87  68  52 S9        29.97F HX  90
IMPERIAL       SUNNY     90  62  39 S12       29.98F HX  90
LEXINGTON      SUNNY     84  69  60 S13       29.99F
MCCOOK         SUNNY     91  67  44 S13       29.98F HX  94
OGALLALA       SUNNY     87  64  47 SE9       29.98F
$$

NEZ005>010-023>029-035>040-094-251700-
NORTH CENTRAL NEBRASKA

CITY           SKY/WX    TMP DP  RH WIND       PRES   REMARKS
VALENTINE      CLOUDY    94  60  32 SW12G17   29.91R HX  94
AINSWORTH      SUNNY     91  64  40 SW17      29.92S HX  93
BROKEN BOW     SUNNY     90  67  46 S16G23    29.98S HX  93
O`NEILL        SUNNY     90  67  47 S17G26    29.93S HX  93
ORD            SUNNY     88  66  48 S18G25    29.95S HX  90
THEDFORD       MOSUNNY   92  64  39 S18       29.96S HX  93
$$

NEZ041-046>049-061>064-073>077-083>087-251700-
SOUTH CENTRAL NEBRASKA

CITY           SKY/WX    TMP DP  RH WIND       PRES   REMARKS
GRAND ISLAND   SUNNY     88  71  57 S17       30.00S HX  94
AURORA         SUNNY     85  72  63 S9        30.01S HX  91
HASTINGS       SUNNY     87  69  54 S12       30.02S HX  91
HEBRON         SUNNY     88  70  56 SW13G20   30.02F HX  93
HOLDREGE       MOSUNNY   83  68  59 S13       30.01S
KEARNEY        MOSUNNY   86  70  58 S17       30.00S HX  90
YORK           SUNNY     84  73  70 S9        30.01S HX  91
$$

NEZ011>018-030>034-042>045-251700-
NORTHEAST NEBRASKA

CITY           SKY/WX    TMP DP  RH WIND       PRES   REMARKS
NORFOLK        SUNNY     88  67  49 SW20      29.96S HX  91
ALBION         SUNNY     90  68  48 SW20      29.97S HX  93
BLAIR          SUNNY     83  72  69 S9        30.01S
COLUMBUS       MOSUNNY   87  71  58 S13G20    29.99S HX  93
FREMONT        SUNNY     85  71  64 S9        30.00S HX  90
TEKAMAH        SUNNY     84  71  65 S13       29.98F
WAYNE          SUNNY     88  73  62 SW17G28   29.96S HX  95
$$

NEZ050>053-065>068-078-088>093-251700-
SOUTHEAST NEBRASKA

CITY           SKY/WX    TMP DP  RH WIND       PRES   REMARKS
LINCOLN        SUNNY     88  72  58 S10       30.00F HX  94
OMAHA EPPLEY   MOSUNNY   84  69  60 SE14      30.01S
BEATRICE       SUNNY     89  73  58 S10G17    30.02F HX  96
FALLS CITY     SUNNY     85  72  65 S10       30.03F HX  91
NEBRASKA CITY  SUNNY     82  75  79 S10       30.03F
PLATTSMOUTH    SUNNY     82  71  68 S9        30.03S
$$

NEZ044-045-051>053-067-251700-
OMAHA AREA

CITY           SKY/WX    TMP DP  RH WIND       PRES   REMARKS
OMAHA EPPLEY   MOSUNNY   84  69  60 SE14      30.01S
BLAIR          SUNNY     83  72  69 S9        30.01S
FREMONT        SUNNY     85  71  64 S9        30.00S HX  90
MILLARD        SUNNY     86  74  67 S9        30.01S HX  93
OFFUTT AFB     SUNNY     84  70  63 SE10      30.01F
PLATTSMOUTH    SUNNY     82  71  68 S9        30.03S
WAHOO          FAIR      85  71  63 S9        30.00S HX  90
$$



USA.gov is the U.S. government's official web portal to all federal, state and local government web resources and services.